Time,TemperatureF,DewpointF,PressureIn,WindDirection,WindDirectionDegrees,WindSpeedMPH,WindSpeedGustMPH,Humidity,HourlyPrecipIn,Conditions,Clouds,dailyrainin,SoftwareType,DateUTC
2013-02-25 00:01:00,45.9,37.0,30.22,East,90,1.0,3.0,71,0.00,,,0.00,meteohub,2013-02-25 08:01:00,
2013-02-25 00:06:00,45.9,37.4,30.22,East,90,0.0,2.0,72,0.00,,,0.00,meteohub,2013-02-25 08:06:00,
2013-02-25 00:11:00,46.2,37.8,30.22,East,90,0.0,2.0,72,0.00,,,0.00,meteohub,2013-02-25 08:11:00,
2013-02-25 00:16:00,46.0,37.6,30.23,East,90,0.0,2.0,72,0.00,,,0.00,meteohub,2013-02-25 08:16:00,
2013-02-25 00:21:00,45.9,37.4,30.22,East,90,1.0,2.0,72,0.00,,,0.00,meteohub,2013-02-25 08:21:00,
2013-02-25 00:26:00,45.9,37.0,30.22,East,90,0.0,1.0,71,0.00,,,0.00,meteohub,2013-02-25 08:26:00,
2013-02-25 00:31:00,46.0,37.2,30.22,East,90,1.0,2.0,71,0.00,,,0.00,meteohub,2013-02-25 08:31:00,
2013-02-25 00:36:00,45.9,36.7,30.22,East,90,0.0,2.0,70,0.00,,,0.00,meteohub,2013-02-25 08:36:00,
2013-02-25 00:41:00,45.3,36.5,30.22,East,90,2.0,2.0,71,0.00,,,0.00,meteohub,2013-02-25 08:41:00,
2013-02-25 00:46:00,45.0,36.5,30.22,NE,45,2.0,2.0,72,0.00,,,0.00,meteohub,2013-02-25 08:46:00,
2013-02-25 00:51:00,44.2,35.8,30.23,NE,45,0.0,3.0,72,0.00,,,0.00,meteohub,2013-02-25 08:51:00,
2013-02-25 00:56:00,43.7,35.6,30.23,NE,45,2.0,3.0,73,0.00,,,0.00,meteohub,2013-02-25 08:56:00,
2013-02-25 01:02:00,44.1,36.3,30.23,NE,45,2.0,3.0,74,0.00,,,0.00,meteohub,2013-02-25 09:02:00,
2013-02-25 01:07:00,44.1,35.6,30.23,NE,45,2.0,2.0,72,0.00,,,0.00,meteohub,2013-02-25 09:07:00,
2013-02-25 01:12:00,44.4,36.0,30.23,NE,45,2.0,2.0,72,0.00,,,0.00,meteohub,2013-02-25 09:12:00,
2013-02-25 01:17:00,44.4,35.2,30.23,NE,45,3.0,3.0,70,0.00,,,0.00,meteohub,2013-02-25 09:17:00,
2013-02-25 01:22:00,44.2,35.1,30.23,NE,45,2.0,3.0,70,0.00,,,0.00,meteohub,2013-02-25 09:22:00,
2013-02-25 01:27:00,44.4,35.2,30.23,NE,45,2.0,3.0,70,0.00,,,0.00,meteohub,2013-02-25 09:27:00,
2013-02-25 01:32:00,44.4,34.9,30.23,NE,45,0.0,3.0,69,0.00,,,0.00,meteohub,2013-02-25 09:32:00,
2013-02-25 01:37:00,43.9,34.3,30.23,NE,45,2.0,2.0,69,0.00,,,0.00,meteohub,2013-02-25 09:37:00,
2013-02-25 01:42:00,43.7,34.2,30.23,NE,45,2.0,3.0,69,0.00,,,0.00,meteohub,2013-02-25 09:42:00,
2013-02-25 01:47:00,43.5,34.0,30.23,NE,45,2.0,3.0,69,0.00,,,0.00,meteohub,2013-02-25 09:47:00,
2013-02-25 01:52:00,43.5,34.0,30.22,NE,45,2.0,3.0,69,0.00,,,0.00,meteohub,2013-02-25 09:52:00,
2013-02-25 01:57:00,43.5,33.6,30.22,NE,45,2.0,3.0,68,0.00,,,0.00,meteohub,2013-02-25 09:57:00,
2013-02-25 02:02:00,43.5,33.6,30.22,NE,45,1.0,2.0,68,0.00,,,0.00,meteohub,2013-02-25 10:02:00,
2013-02-25 02:07:00,43.5,33.6,30.22,NE,45,2.0,2.0,68,0.00,,,0.00,meteohub,2013-02-25 10:07:00,
2013-02-25 02:12:00,43.7,33.1,30.22,NE,45,3.0,3.0,66,0.00,,,0.00,meteohub,2013-02-25 10:12:00,
2013-02-25 02:17:00,43.9,33.3,30.22,NE,45,2.0,3.0,66,0.00,,,0.00,meteohub,2013-02-25 10:17:00,
2013-02-25 02:22:00,43.9,32.9,30.22,ESE,113,4.0,4.0,65,0.00,,,0.00,meteohub,2013-02-25 10:22:00,
2013-02-25 02:27:00,43.9,32.5,30.22,East,90,3.0,4.0,64,0.00,,,0.00,meteohub,2013-02-25 10:27:00,
2013-02-25 02:32:00,43.7,32.0,30.22,East,90,2.0,4.0,63,0.00,,,0.00,meteohub,2013-02-25 10:32:00,
2013-02-25 02:37:00,43.0,31.6,30.22,East,90,2.0,4.0,64,0.00,,,0.00,meteohub,2013-02-25 10:37:00,
2013-02-25 02:42:00,42.6,30.9,30.22,East,90,1.0,4.0,63,0.00,,,0.00,meteohub,2013-02-25 10:42:00,
2013-02-25 02:47:00,42.3,30.9,30.22,East,90,0.0,3.0,64,0.00,,,0.00,meteohub,2013-02-25 10:47:00,
2013-02-25 02:52:00,41.9,30.9,30.22,East,90,1.0,2.0,65,0.00,,,0.00,meteohub,2013-02-25 10:52:00,
2013-02-25 02:57:00,41.5,31.1,30.22,East,90,2.0,2.0,66,0.00,,,0.00,meteohub,2013-02-25 10:57:00,
2013-02-25 03:02:00,41.9,30.9,30.22,East,90,2.0,2.0,65,0.00,,,0.00,meteohub,2013-02-25 11:02:00,
2013-02-25 03:07:00,42.4,31.1,30.22,East,90,2.0,2.0,64,0.00,,,0.00,meteohub,2013-02-25 11:07:00,
2013-02-25 03:12:00,42.4,30.7,30.22,East,90,0.0,2.0,63,0.00,,,0.00,meteohub,2013-02-25 11:12:00,
2013-02-25 03:17:00,41.9,30.6,30.22,East,90,2.0,2.0,64,0.00,,,0.00,meteohub,2013-02-25 11:17:00,
2013-02-25 03:22:00,41.9,31.5,30.22,East,90,2.0,3.0,66,0.00,,,0.00,meteohub,2013-02-25 11:22:00,
2013-02-25 03:27:00,42.4,31.5,30.22,East,90,2.0,3.0,65,0.00,,,0.00,meteohub,2013-02-25 11:27:00,
2013-02-25 03:32:00,42.4,31.1,30.22,East,90,2.0,3.0,64,0.00,,,0.00,meteohub,2013-02-25 11:32:00,
2013-02-25 03:37:00,42.1,30.4,30.22,East,90,1.0,3.0,63,0.00,,,0.00,meteohub,2013-02-25 11:37:00,
2013-02-25 03:42:00,41.7,30.4,30.22,East,90,0.0,3.0,64,0.00,,,0.00,meteohub,2013-02-25 11:42:00,
2013-02-25 03:47:00,41.7,30.7,30.22,East,90,1.0,2.0,65,0.00,,,0.00,meteohub,2013-02-25 11:47:00,
2013-02-25 03:52:00,41.4,30.9,30.22,East,90,3.0,3.0,66,0.00,,,0.00,meteohub,2013-02-25 11:52:00,
2013-02-25 03:57:00,41.5,31.1,30.22,East,90,2.0,3.0,66,0.00,,,0.00,meteohub,2013-02-25 11:57:00,
2013-02-25 04:02:00,41.5,31.1,30.22,East,90,2.0,4.0,66,0.00,,,0.00,meteohub,2013-02-25 12:02:00,
2013-02-25 04:07:00,41.4,30.9,30.22,East,90,2.0,4.0,66,0.00,,,0.00,meteohub,2013-02-25 12:07:00,
2013-02-25 04:12:00,41.2,31.1,30.22,East,90,2.0,4.0,67,0.00,,,0.00,meteohub,2013-02-25 12:12:00,
2013-02-25 04:17:00,41.2,31.1,30.22,East,90,2.0,2.0,67,0.00,,,0.00,meteohub,2013-02-25 12:17:00,
2013-02-25 04:22:00,41.4,31.3,30.22,East,90,2.0,2.0,67,0.00,,,0.00,meteohub,2013-02-25 12:22:00,
2013-02-25 04:27:00,41.7,31.6,30.22,SE,135,2.0,3.0,67,0.00,,,0.00,meteohub,2013-02-25 12:27:00,
2013-02-25 04:32:00,42.1,31.1,30.22,ESE,113,3.0,3.0,65,0.00,,,0.00,meteohub,2013-02-25 12:32:00,
2013-02-25 04:37:00,42.1,30.7,30.22,SE,135,2.0,3.0,64,0.00,,,0.00,meteohub,2013-02-25 12:37:00,
2013-02-25 04:42:00,42.1,30.4,30.22,SE,135,0.0,3.0,63,0.00,,,0.00,meteohub,2013-02-25 12:42:00,
2013-02-25 04:47:00,41.9,30.2,30.22,SE,135,0.0,3.0,63,0.00,,,0.00,meteohub,2013-02-25 12:47:00,
2013-02-25 04:52:00,41.4,29.7,30.22,SE,135,2.0,2.0,63,0.00,,,0.00,meteohub,2013-02-25 12:52:00,
2013-02-25 04:57:00,41.4,29.7,30.22,SE,135,2.0,2.0,63,0.00,,,0.00,meteohub,2013-02-25 12:57:00,
2013-02-25 05:02:00,41.4,29.7,30.22,SE,135,1.0,2.0,63,0.00,,,0.00,meteohub,2013-02-25 13:02:00,
2013-02-25 05:07:00,40.6,29.1,30.22,SE,135,0.0,2.0,63,0.00,,,0.00,meteohub,2013-02-25 13:07:00,
2013-02-25 05:12:00,40.6,29.5,30.22,SE,135,2.0,2.0,64,0.00,,,0.00,meteohub,2013-02-25 13:12:00,
2013-02-25 05:17:00,40.8,29.7,30.22,SE,135,2.0,2.0,64,0.00,,,0.00,meteohub,2013-02-25 13:17:00,
2013-02-25 05:25:00,40.3,29.5,30.23,SE,135,2.0,2.0,65,0.00,,,0.00,meteohub,2013-02-25 13:25:00,
2013-02-25 05:30:00,39.6,28.8,30.22,SE,135,1.0,2.0,65,0.00,,,0.00,meteohub,2013-02-25 13:30:00,
2013-02-25 05:35:00,39.6,29.1,30.22,SE,135,2.0,2.0,66,0.00,,,0.00,meteohub,2013-02-25 13:35:00,
2013-02-25 05:40:00,39.7,29.3,30.22,SE,135,1.0,2.0,66,0.00,,,0.00,meteohub,2013-02-25 13:40:00,
2013-02-25 05:45:00,39.9,28.8,30.22,SE,135,2.0,2.0,64,0.00,,,0.00,meteohub,2013-02-25 13:45:00,
2013-02-25 05:50:00,40.1,28.6,30.22,SE,135,2.0,2.0,63,0.00,,,0.00,meteohub,2013-02-25 13:50:00,
2013-02-25 05:55:00,40.1,28.0,30.22,SE,135,2.0,2.0,62,0.00,,,0.00,meteohub,2013-02-25 13:55:00,
2013-02-25 06:01:00,40.1,28.0,30.22,SE,135,0.0,2.0,62,0.00,,,0.00,meteohub,2013-02-25 14:01:00,
2013-02-25 06:06:00,40.1,28.0,30.22,SE,135,1.0,2.0,62,0.00,,,0.00,meteohub,2013-02-25 14:06:00,
2013-02-25 06:11:00,39.7,28.2,30.22,SE,135,1.0,2.0,63,0.00,,,0.00,meteohub,2013-02-25 14:11:00,
2013-02-25 06:16:00,39.6,28.0,30.23,SE,135,0.0,2.0,63,0.00,,,0.00,meteohub,2013-02-25 14:16:00,
2013-02-25 06:21:00,39.2,28.8,30.22,SE,135,0.0,2.0,66,0.00,,,0.00,meteohub,2013-02-25 14:21:00,
2013-02-25 06:26:00,39.0,28.9,30.23,SE,135,1.0,2.0,67,0.00,,,0.00,meteohub,2013-02-25 14:26:00,
2013-02-25 06:31:00,38.8,28.4,30.22,SE,135,2.0,2.0,66,0.00,,,0.00,meteohub,2013-02-25 14:31:00,
2013-02-25 06:36:00,39.0,28.9,30.22,SE,135,2.0,2.0,67,0.00,,,0.00,meteohub,2013-02-25 14:36:00,
2013-02-25 06:41:00,38.8,28.4,30.22,SE,135,0.0,2.0,66,0.00,,,0.00,meteohub,2013-02-25 14:41:00,
2013-02-25 06:46:00,38.7,28.6,30.23,SE,135,0.0,2.0,67,0.00,,,0.00,meteohub,2013-02-25 14:46:00,
2013-02-25 06:51:00,38.7,28.6,30.22,SE,135,0.0,2.0,67,0.00,,,0.00,meteohub,2013-02-25 14:51:00,
2013-02-25 06:56:00,40.8,30.7,30.23,SE,135,0.0,1.0,67,0.00,,,0.00,meteohub,2013-02-25 14:56:00,
2013-02-25 07:01:00,44.6,32.7,30.23,SE,135,0.0,1.0,63,0.00,,,0.00,meteohub,2013-02-25 15:01:00,
2013-02-25 07:06:00,48.0,34.0,30.23,SE,135,0.0,1.0,58,0.00,,,0.00,meteohub,2013-02-25 15:06:00,
2013-02-25 07:11:00,51.1,34.0,30.24,SE,135,0.0,1.0,52,0.00,,,0.00,meteohub,2013-02-25 15:11:00,
2013-02-25 07:16:00,52.7,30.2,30.23,East,90,2.0,2.0,42,0.00,,,0.00,meteohub,2013-02-25 15:16:00,
2013-02-25 07:21:00,53.6,28.6,30.23,East,90,2.0,2.0,38,0.00,,,0.00,meteohub,2013-02-25 15:21:00,
2013-02-25 07:26:00,53.2,27.7,30.23,NE,45,2.0,4.0,37,0.00,,,0.00,meteohub,2013-02-25 15:26:00,
2013-02-25 07:31:00,54.0,28.2,30.23,NE,45,4.0,4.0,37,0.00,,,0.00,meteohub,2013-02-25 15:31:00,
2013-02-25 07:37:00,54.1,29.1,30.24,NE,45,2.0,4.0,38,0.00,,,0.00,meteohub,2013-02-25 15:37:00,
2013-02-25 07:42:00,53.8,28.8,30.24,East,90,4.0,4.0,38,0.00,,,0.00,meteohub,2013-02-25 15:42:00,
2013-02-25 07:47:00,53.6,28.0,30.24,East,90,5.0,5.0,37,0.00,,,0.00,meteohub,2013-02-25 15:47:00,
2013-02-25 07:52:00,53.6,28.6,30.24,ESE,113,6.0,6.0,38,0.00,,,0.00,meteohub,2013-02-25 15:52:00,
2013-02-25 07:57:00,54.0,28.9,30.24,East,90,5.0,6.0,38,0.00,,,0.00,meteohub,2013-02-25 15:57:00,
2013-02-25 08:02:00,54.7,27.5,30.24,East,90,4.0,6.0,35,0.00,,,0.00,meteohub,2013-02-25 16:02:00,
2013-02-25 08:07:00,55.6,27.0,30.24,East,90,4.0,6.0,33,0.00,,,0.00,meteohub,2013-02-25 16:07:00,
2013-02-25 08:12:00,55.9,25.7,30.24,ESE,113,6.0,6.0,31,0.00,,,0.00,meteohub,2013-02-25 16:12:00,
2013-02-25 08:17:00,55.8,25.5,30.24,ESE,113,4.0,6.0,31,0.00,,,0.00,meteohub,2013-02-25 16:17:00,
2013-02-25 08:21:00,56.3,24.4,30.24,East,90,6.0,7.0,29,0.00,,,0.00,meteohub,2013-02-25 16:21:00,
2013-02-25 08:27:00,57.0,25.0,30.24,East,90,4.0,7.0,29,0.00,,,0.00,meteohub,2013-02-25 16:27:00,
2013-02-25 08:32:00,58.1,25.2,30.23,East,90,4.0,7.0,28,0.00,,,0.00,meteohub,2013-02-25 16:32:00,
2013-02-25 08:37:00,58.3,25.3,30.24,East,90,6.0,6.0,28,0.00,,,0.00,meteohub,2013-02-25 16:37:00,
2013-02-25 08:42:00,58.3,26.2,30.23,SE,135,4.0,8.0,29,0.00,,,0.00,meteohub,2013-02-25 16:42:00,
2013-02-25 08:47:00,59.2,27.7,30.23,East,90,5.0,8.0,30,0.00,,,0.00,meteohub,2013-02-25 16:47:00,
2013-02-25 08:52:00,59.0,30.0,30.23,East,90,4.0,8.0,33,0.00,,,0.00,meteohub,2013-02-25 16:52:00,
2013-02-25 08:57:00,59.2,32.9,30.23,ESE,113,6.0,7.0,37,0.00,,,0.00,meteohub,2013-02-25 16:57:00,
2013-02-25 09:02:00,59.5,35.2,30.23,North,0,4.0,7.0,40,0.00,,,0.00,meteohub,2013-02-25 17:02:00,
2013-02-25 09:07:00,59.5,37.0,30.22,SE,135,5.0,6.0,43,0.00,,,0.00,meteohub,2013-02-25 17:07:00,
2013-02-25 09:12:00,59.9,36.1,30.22,NE,45,4.0,7.0,41,0.00,,,0.00,meteohub,2013-02-25 17:12:00,
2013-02-25 09:17:00,60.3,38.8,30.23,East,90,5.0,7.0,45,0.00,,,0.00,meteohub,2013-02-25 17:17:00,
2013-02-25 09:22:00,60.6,37.9,30.22,SE,135,2.0,7.0,43,0.00,,,0.00,meteohub,2013-02-25 17:22:00,
2013-02-25 09:27:00,60.8,38.1,30.22,East,90,4.0,6.0,43,0.00,,,0.00,meteohub,2013-02-25 17:27:00,
2013-02-25 09:32:00,61.0,37.0,30.22,SE,135,2.0,6.0,41,0.00,,,0.00,meteohub,2013-02-25 17:32:00,
2013-02-25 09:37:00,62.1,36.9,30.22,East,90,4.0,5.0,39,0.00,,,0.00,meteohub,2013-02-25 17:37:00,
2013-02-25 09:42:00,62.6,35.2,30.22,ESE,113,5.0,5.0,36,0.00,,,0.00,meteohub,2013-02-25 17:42:00,
2013-02-25 09:47:00,63.3,33.8,30.22,NE,45,2.0,5.0,33,0.00,,,0.00,meteohub,2013-02-25 17:47:00,
2013-02-25 09:52:00,63.5,33.1,30.22,North,0,2.0,5.0,32,0.00,,,0.00,meteohub,2013-02-25 17:52:00,
2013-02-25 09:57:00,63.9,30.9,30.22,SW,225,2.0,5.0,29,0.00,,,0.00,meteohub,2013-02-25 17:57:00,
2013-02-25 10:02:00,64.2,31.3,30.22,ESE,113,2.0,4.0,29,0.00,,,0.00,meteohub,2013-02-25 18:02:00,
2013-02-25 10:07:00,64.4,31.5,30.22,South,180,2.0,3.0,29,0.00,,,0.00,meteohub,2013-02-25 18:07:00,
2013-02-25 10:12:00,65.7,30.7,30.22,NE,45,2.0,3.0,27,0.00,,,0.00,meteohub,2013-02-25 18:12:00,
2013-02-25 10:17:00,65.3,30.4,30.22,East,90,3.0,4.0,27,0.00,,,0.00,meteohub,2013-02-25 18:17:00,
2013-02-25 10:22:00,65.3,29.5,30.22,West,270,3.0,5.0,26,0.00,,,0.00,meteohub,2013-02-25 18:22:00,
2013-02-25 10:27:00,65.7,29.8,30.22,North,0,2.0,5.0,26,0.00,,,0.00,meteohub,2013-02-25 18:27:00,
2013-02-25 10:32:00,66.9,27.9,30.22,NE,45,2.0,5.0,23,0.00,,,0.00,meteohub,2013-02-25 18:32:00,
2013-02-25 10:37:00,67.3,24.8,30.22,NW,315,4.0,4.0,20,0.00,,,0.00,meteohub,2013-02-25 18:37:00,
2013-02-25 10:42:00,66.9,22.1,30.22,West,270,7.0,7.0,18,0.00,,,0.00,meteohub,2013-02-25 18:42:00,
2013-02-25 10:47:00,67.3,24.8,30.21,West,270,4.0,7.0,20,0.00,,,0.00,meteohub,2013-02-25 18:47:00,
2013-02-25 10:52:00,68.9,27.3,30.21,North,0,4.0,7.0,21,0.00,,,0.00,meteohub,2013-02-25 18:52:00,
2013-02-25 10:57:00,68.5,29.3,30.21,West,270,6.0,7.0,23,0.00,,,0.00,meteohub,2013-02-25 18:57:00,
2013-02-25 11:02:00,67.5,31.5,30.21,NW,315,9.0,9.0,26,0.00,,,0.00,meteohub,2013-02-25 19:02:00,
2013-02-25 11:07:00,68.0,28.8,30.21,West,270,4.0,11.0,23,0.00,,,0.00,meteohub,2013-02-25 19:07:00,
2013-02-25 11:12:00,68.0,26.6,30.20,NNW,338,8.0,11.0,21,0.00,,,0.00,meteohub,2013-02-25 19:12:00,
2013-02-25 11:17:00,67.6,13.3,30.20,WNW,293,9.0,11.0,12,0.00,,,0.00,meteohub,2013-02-25 19:17:00,
2013-02-25 11:22:00,68.0,21.6,30.20,WNW,293,8.0,11.0,17,0.00,,,0.00,meteohub,2013-02-25 19:22:00,
2013-02-25 11:27:00,67.8,24.1,30.20,WNW,293,6.0,11.0,19,0.00,,,0.00,meteohub,2013-02-25 19:27:00,
2013-02-25 11:32:00,67.6,26.2,30.20,West,270,10.0,10.0,21,0.00,,,0.00,meteohub,2013-02-25 19:32:00,
2013-02-25 11:37:00,67.6,21.2,30.20,SSW,203,6.0,10.0,17,0.00,,,0.00,meteohub,2013-02-25 19:37:00,
2013-02-25 11:42:00,68.0,29.8,30.19,West,270,9.0,11.0,24,0.00,,,0.00,meteohub,2013-02-25 19:42:00,
2013-02-25 11:47:00,67.6,26.2,30.20,WNW,293,11.0,11.0,21,0.00,,,0.00,meteohub,2013-02-25 19:47:00,
2013-02-25 11:52:00,66.9,25.7,30.19,NW,315,10.0,11.0,21,0.00,,,0.00,meteohub,2013-02-25 19:52:00,
2013-02-25 11:57:00,66.6,26.6,30.19,West,270,11.0,11.0,22,0.00,,,0.00,meteohub,2013-02-25 19:57:00,
2013-02-25 12:02:00,66.9,25.7,30.19,WSW,248,11.0,11.0,21,0.00,,,0.00,meteohub,2013-02-25 20:02:00,
2013-02-25 12:07:00,66.4,22.8,30.19,NW,315,11.0,11.0,19,0.00,,,0.00,meteohub,2013-02-25 20:07:00,
2013-02-25 12:12:00,66.0,19.9,30.19,West,270,9.0,11.0,17,0.00,,,0.00,meteohub,2013-02-25 20:12:00,
2013-02-25 12:17:00,66.6,20.3,30.18,WNW,293,10.0,11.0,17,0.00,,,0.00,meteohub,2013-02-25 20:17:00,
2013-02-25 12:22:00,66.0,17.1,30.18,West,270,11.0,11.0,15,0.00,,,0.00,meteohub,2013-02-25 20:22:00,
2013-02-25 12:27:00,66.7,24.4,30.18,NW,315,8.0,11.0,20,0.00,,,0.00,meteohub,2013-02-25 20:27:00,
2013-02-25 12:32:00,66.4,27.5,30.17,West,270,8.0,11.0,23,0.00,,,0.00,meteohub,2013-02-25 20:32:00,
2013-02-25 12:37:00,66.7,29.8,30.17,West,270,7.0,11.0,25,0.00,,,0.00,meteohub,2013-02-25 20:37:00,
2013-02-25 12:42:00,66.9,31.8,30.17,NW,315,7.0,11.0,27,0.00,,,0.00,meteohub,2013-02-25 20:42:00,
2013-02-25 12:47:00,66.2,30.4,30.17,NW,315,9.0,11.0,26,0.00,,,0.00,meteohub,2013-02-25 20:47:00,
2013-02-25 12:52:00,66.0,35.2,30.17,NW,315,11.0,11.0,32,0.00,,,0.00,meteohub,2013-02-25 20:52:00,
2013-02-25 12:57:00,65.5,35.6,30.17,West,270,11.0,11.0,33,0.00,,,0.00,meteohub,2013-02-25 20:57:00,
2013-02-25 13:02:00,65.1,35.2,30.17,NW,315,9.0,11.0,33,0.00,,,0.00,meteohub,2013-02-25 21:02:00,
2013-02-25 13:07:00,65.1,32.9,30.16,West,270,9.0,11.0,30,0.00,,,0.00,meteohub,2013-02-25 21:07:00,
2013-02-25 13:12:00,65.1,34.5,30.16,NW,315,8.0,11.0,32,0.00,,,0.00,meteohub,2013-02-25 21:12:00,
2013-02-25 13:17:00,65.5,30.6,30.16,WNW,293,8.0,12.0,27,0.00,,,0.00,meteohub,2013-02-25 21:17:00,
2013-02-25 13:22:00,65.3,27.5,30.16,West,270,13.0,13.0,24,0.00,,,0.00,meteohub,2013-02-25 21:22:00,
2013-02-25 13:28:00,65.5,30.6,30.16,West,270,11.0,13.0,27,0.00,,,0.00,meteohub,2013-02-25 21:28:00,
2013-02-25 13:32:00,65.5,27.7,30.16,WNW,293,9.0,13.0,24,0.00,,,0.00,meteohub,2013-02-25 21:32:00,
2013-02-25 13:38:00,65.5,24.4,30.15,West,270,11.0,13.0,21,0.00,,,0.00,meteohub,2013-02-25 21:38:00,
2013-02-25 13:43:00,65.3,25.5,30.15,NW,315,8.0,12.0,22,0.00,,,0.00,meteohub,2013-02-25 21:43:00,
2013-02-25 13:48:00,65.7,21.0,30.15,WNW,293,9.0,12.0,18,0.00,,,0.00,meteohub,2013-02-25 21:48:00,
2013-02-25 13:53:00,65.8,25.9,30.14,NW,315,8.0,11.0,22,0.00,,,0.00,meteohub,2013-02-25 21:53:00,
2013-02-25 13:58:00,66.0,26.1,30.15,NW,315,10.0,11.0,22,0.00,,,0.00,meteohub,2013-02-25 21:58:00,
2013-02-25 14:03:00,65.3,27.5,30.15,WNW,293,10.0,11.0,24,0.00,,,0.00,meteohub,2013-02-25 22:03:00,
2013-02-25 14:08:00,65.7,27.9,30.14,NW,315,10.0,13.0,24,0.00,,,0.00,meteohub,2013-02-25 22:08:00,
2013-02-25 14:13:00,66.0,27.1,30.15,WNW,293,8.0,13.0,23,0.00,,,0.00,meteohub,2013-02-25 22:13:00,
2013-02-25 14:18:00,66.4,25.3,30.14,West,270,10.0,12.0,21,0.00,,,0.00,meteohub,2013-02-25 22:18:00,
2013-02-25 14:23:00,66.2,31.3,30.15,West,270,6.0,11.0,27,0.00,,,0.00,meteohub,2013-02-25 22:23:00,
2013-02-25 14:28:00,66.0,30.2,30.15,NW,315,10.0,13.0,26,0.00,,,0.00,meteohub,2013-02-25 22:28:00,
2013-02-25 14:33:00,65.5,31.5,30.15,West,270,12.0,13.0,28,0.00,,,0.00,meteohub,2013-02-25 22:33:00,
2013-02-25 14:38:00,65.5,34.0,30.15,NW,315,9.0,13.0,31,0.00,,,0.00,meteohub,2013-02-25 22:38:00,
2013-02-25 14:43:00,65.7,32.5,30.14,West,270,12.0,13.0,29,0.00,,,0.00,meteohub,2013-02-25 22:43:00,
2013-02-25 14:48:00,65.5,33.3,30.14,WNW,293,11.0,13.0,30,0.00,,,0.00,meteohub,2013-02-25 22:48:00,
2013-02-25 14:53:00,65.8,34.3,30.14,NW,315,11.0,13.0,31,0.00,,,0.00,meteohub,2013-02-25 22:53:00,
2013-02-25 14:58:00,66.0,33.6,30.14,NW,315,9.0,13.0,30,0.00,,,0.00,meteohub,2013-02-25 22:58:00,
2013-02-25 15:03:00,65.8,33.6,30.14,WNW,293,11.0,11.0,30,0.00,,,0.00,meteohub,2013-02-25 23:03:00,
2013-02-25 15:08:00,65.3,35.4,30.14,WNW,293,11.0,13.0,33,0.00,,,0.00,meteohub,2013-02-25 23:08:00,
2013-02-25 15:13:00,64.8,37.9,30.14,NW,315,14.0,14.0,37,0.00,,,0.00,meteohub,2013-02-25 23:13:00,
2013-02-25 15:18:00,64.9,41.4,30.14,NW,315,11.0,14.0,42,0.00,,,0.00,meteohub,2013-02-25 23:18:00,
2013-02-25 15:23:00,64.4,42.6,30.13,WNW,293,11.0,14.0,45,0.00,,,0.00,meteohub,2013-02-25 23:23:00,
2013-02-25 15:28:00,64.2,41.2,30.13,West,270,9.0,14.0,43,0.00,,,0.00,meteohub,2013-02-25 23:28:00,
2013-02-25 15:33:00,63.9,39.7,30.13,West,270,11.0,12.0,41,0.00,,,0.00,meteohub,2013-02-25 23:33:00,
2013-02-25 15:38:00,63.7,41.9,30.13,NW,315,11.0,13.0,45,0.00,,,0.00,meteohub,2013-02-25 23:38:00,
2013-02-25 15:43:00,63.9,42.6,30.13,West,270,11.0,13.0,46,0.00,,,0.00,meteohub,2013-02-25 23:43:00,
2013-02-25 15:48:00,63.3,42.3,30.13,West,270,10.0,13.0,46,0.00,,,0.00,meteohub,2013-02-25 23:48:00,
2013-02-25 15:53:00,63.3,42.8,30.12,West,270,11.0,14.0,47,0.00,,,0.00,meteohub,2013-02-25 23:53:00,
2013-02-25 15:58:00,63.3,40.5,30.12,West,270,8.0,14.0,43,0.00,,,0.00,meteohub,2013-02-25 23:58:00,
2013-02-25 16:03:00,63.5,42.3,30.12,WNW,293,11.0,14.0,46,0.00,,,0.00,meteohub,2013-02-26 00:03:00,
2013-02-25 16:08:00,63.5,43.0,30.13,West,270,9.0,13.0,47,0.00,,,0.00,meteohub,2013-02-26 00:08:00,
2013-02-25 16:13:00,63.1,46.8,30.12,NW,315,7.0,13.0,55,0.00,,,0.00,meteohub,2013-02-26 00:13:00,
2013-02-25 16:18:00,63.0,48.0,30.12,West,270,8.0,12.0,58,0.00,,,0.00,meteohub,2013-02-26 00:18:00,
2013-02-25 16:23:00,63.5,44.6,30.12,NW,315,11.0,12.0,50,0.00,,,0.00,meteohub,2013-02-26 00:23:00,
2013-02-25 16:28:00,62.8,47.3,30.12,West,270,8.0,12.0,57,0.00,,,0.00,meteohub,2013-02-26 00:28:00,
2013-02-25 16:33:00,62.4,47.8,30.11,West,270,8.0,11.0,59,0.00,,,0.00,meteohub,2013-02-26 00:33:00,
2013-02-25 16:38:00,62.4,47.5,30.11,WNW,293,7.0,11.0,58,0.00,,,0.00,meteohub,2013-02-26 00:38:00,
2013-02-25 16:43:00,62.4,46.9,30.11,WNW,293,7.0,11.0,57,0.00,,,0.00,meteohub,2013-02-26 00:43:00,
2013-02-25 16:48:00,62.6,46.8,30.11,NW,315,7.0,11.0,56,0.00,,,0.00,meteohub,2013-02-26 00:48:00,
2013-02-25 16:53:00,62.6,46.2,30.11,West,270,8.0,8.0,55,0.00,,,0.00,meteohub,2013-02-26 00:53:00,
2013-02-25 16:58:00,62.2,46.4,30.11,NW,315,8.0,9.0,56,0.00,,,0.00,meteohub,2013-02-26 00:58:00,
2013-02-25 17:03:00,62.2,45.9,30.11,NW,315,7.0,9.0,55,0.00,,,0.00,meteohub,2013-02-26 01:03:00,
2013-02-25 17:08:00,61.7,45.9,30.10,NW,315,6.0,9.0,56,0.00,,,0.00,meteohub,2013-02-26 01:08:00,
2013-02-25 17:13:00,61.0,46.0,30.10,NW,315,6.0,9.0,58,0.00,,,0.00,meteohub,2013-02-26 01:13:00,
2013-02-25 17:18:00,60.6,47.1,30.10,West,270,6.0,9.0,61,0.00,,,0.00,meteohub,2013-02-26 01:18:00,
2013-02-25 17:23:00,60.3,47.1,30.10,WNW,293,7.0,9.0,62,0.00,,,0.00,meteohub,2013-02-26 01:23:00,
2013-02-25 17:28:00,59.7,47.5,30.10,WNW,293,5.0,7.0,64,0.00,,,0.00,meteohub,2013-02-26 01:28:00,
2013-02-25 17:33:00,59.4,47.7,30.10,NW,315,3.0,7.0,65,0.00,,,0.00,meteohub,2013-02-26 01:33:00,
2013-02-25 17:38:00,59.0,47.7,30.10,NW,315,3.0,7.0,66,0.00,,,0.00,meteohub,2013-02-26 01:38:00,
2013-02-25 17:43:00,58.5,47.1,30.10,NW,315,3.0,7.0,66,0.00,,,0.00,meteohub,2013-02-26 01:43:00,
2013-02-25 17:48:00,58.3,47.8,30.09,NW,315,2.0,4.0,68,0.00,,,0.00,meteohub,2013-02-26 01:48:00,
2013-02-25 17:53:00,57.9,48.2,30.09,West,270,2.0,4.0,70,0.00,,,0.00,meteohub,2013-02-26 01:53:00,
2013-02-25 17:58:00,57.4,48.7,30.10,West,270,4.0,4.0,73,0.00,,,0.00,meteohub,2013-02-26 01:58:00,
2013-02-25 18:03:00,57.0,48.4,30.09,West,270,2.0,4.0,73,0.00,,,0.00,meteohub,2013-02-26 02:03:00,
2013-02-25 18:09:00,56.8,47.8,30.09,West,270,2.0,4.0,72,0.00,,,0.00,meteohub,2013-02-26 02:09:00,
2013-02-25 18:14:00,56.7,47.3,30.09,West,270,2.0,4.0,71,0.00,,,0.00,meteohub,2013-02-26 02:14:00,
2013-02-25 18:19:00,56.7,47.7,30.10,West,270,3.0,4.0,72,0.00,,,0.00,meteohub,2013-02-26 02:19:00,
2013-02-25 18:24:00,56.3,47.5,30.10,West,270,2.0,3.0,72,0.00,,,0.00,meteohub,2013-02-26 02:24:00,
2013-02-25 18:29:00,55.9,47.5,30.10,West,270,2.0,3.0,73,0.00,,,0.00,meteohub,2013-02-26 02:29:00,
2013-02-25 18:34:00,55.6,47.1,30.10,West,270,0.0,3.0,73,0.00,,,0.00,meteohub,2013-02-26 02:34:00,
2013-02-25 18:39:00,55.6,47.1,30.10,West,270,1.0,3.0,73,0.00,,,0.00,meteohub,2013-02-26 02:39:00,
2013-02-25 18:44:00,55.2,46.8,30.10,West,270,0.0,3.0,73,0.00,,,0.00,meteohub,2013-02-26 02:44:00,
2013-02-25 18:49:00,54.9,46.4,30.10,West,270,1.0,3.0,73,0.00,,,0.00,meteohub,2013-02-26 02:49:00,
2013-02-25 18:54:00,54.5,46.4,30.10,West,270,1.0,3.0,74,0.00,,,0.00,meteohub,2013-02-26 02:54:00,
2013-02-25 18:59:00,54.7,46.9,30.10,West,270,0.0,2.0,75,0.00,,,0.00,meteohub,2013-02-26 02:59:00,
2013-02-25 19:04:00,54.1,46.4,30.11,West,270,0.0,2.0,75,0.00,,,0.00,meteohub,2013-02-26 03:04:00,
2013-02-25 19:09:00,54.1,46.8,30.11,West,270,2.0,2.0,76,0.00,,,0.00,meteohub,2013-02-26 03:09:00,
2013-02-25 19:14:00,54.5,46.4,30.11,West,270,3.0,3.0,74,0.00,,,0.00,meteohub,2013-02-26 03:14:00,
2013-02-25 19:19:00,54.7,46.2,30.11,West,270,3.0,4.0,73,0.00,,,0.00,meteohub,2013-02-26 03:19:00,
2013-02-25 19:24:00,54.5,45.7,30.11,West,270,2.0,4.0,72,0.00,,,0.00,meteohub,2013-02-26 03:24:00,
2013-02-25 19:29:00,54.0,45.1,30.12,West,270,0.0,4.0,72,0.00,,,0.00,meteohub,2013-02-26 03:29:00,
2013-02-25 19:34:00,53.6,44.8,30.12,West,270,0.0,3.0,72,0.00,,,0.00,meteohub,2013-02-26 03:34:00,
2013-02-25 19:39:00,53.4,45.7,30.12,West,270,2.0,2.0,75,0.00,,,0.00,meteohub,2013-02-26 03:39:00,
2013-02-25 19:44:00,53.4,46.0,30.12,West,270,0.0,2.0,76,0.00,,,0.00,meteohub,2013-02-26 03:44:00,
2013-02-25 19:49:00,53.4,46.0,30.12,West,270,1.0,2.0,76,0.00,,,0.00,meteohub,2013-02-26 03:49:00,
2013-02-25 19:54:00,53.1,45.3,30.12,West,270,0.0,2.0,75,0.00,,,0.00,meteohub,2013-02-26 03:54:00,
2013-02-25 19:59:00,52.7,45.3,30.12,West,270,0.0,2.0,76,0.00,,,0.00,meteohub,2013-02-26 03:59:00,
2013-02-25 20:04:00,52.2,45.1,30.12,West,270,0.0,2.0,77,0.00,,,0.00,meteohub,2013-02-26 04:04:00,
2013-02-25 20:09:00,51.4,44.8,30.12,West,270,0.0,2.0,78,0.00,,,0.00,meteohub,2013-02-26 04:09:00,
2013-02-25 20:14:00,51.1,45.1,30.12,West,270,2.0,0.0,80,0.00,,,0.00,meteohub,2013-02-26 04:14:00,
2013-02-25 20:19:00,51.4,45.9,30.12,West,270,2.0,2.0,81,0.00,,,0.00,meteohub,2013-02-26 04:19:00,
2013-02-25 20:24:00,51.8,46.2,30.12,West,270,1.0,2.0,81,0.00,,,0.00,meteohub,2013-02-26 04:24:00,
2013-02-25 20:29:00,51.6,45.3,30.12,West,270,0.0,2.0,79,0.00,,,0.00,meteohub,2013-02-26 04:29:00,
2013-02-25 20:34:00,51.3,45.3,30.12,West,270,2.0,2.0,80,0.00,,,0.00,meteohub,2013-02-26 04:34:00,
2013-02-25 20:39:00,51.3,45.7,30.12,West,270,1.0,2.0,81,0.00,,,0.00,meteohub,2013-02-26 04:39:00,
2013-02-25 20:44:00,51.3,45.7,30.12,West,270,0.0,2.0,81,0.00,,,0.00,meteohub,2013-02-26 04:44:00,
2013-02-25 20:49:00,50.9,45.0,30.12,West,270,0.0,2.0,80,0.00,,,0.00,meteohub,2013-02-26 04:49:00,
2013-02-25 20:54:00,50.5,44.6,30.12,West,270,0.0,2.0,80,0.00,,,0.00,meteohub,2013-02-26 04:54:00,
2013-02-25 20:59:00,50.0,44.1,30.12,West,270,0.0,1.0,80,0.00,,,0.00,meteohub,2013-02-26 04:59:00,
2013-02-25 21:00:00,50.0,44.1,30.12,West,270,0.0,1.0,80,0.00,,,0.00,meteohub,2013-02-26 05:00:00,
2013-02-25 21:05:00,49.8,44.2,30.12,West,270,0.0,0.0,81,0.00,,,0.00,meteohub,2013-02-26 05:05:00,
2013-02-25 21:10:00,49.3,43.7,30.12,West,270,0.0,0.0,81,0.00,,,0.00,meteohub,2013-02-26 05:10:00,
2013-02-25 21:15:00,48.9,43.7,30.12,West,270,1.0,1.0,82,0.00,,,0.00,meteohub,2013-02-26 05:15:00,
2013-02-25 21:20:00,48.9,44.1,30.12,West,270,0.0,1.0,83,0.00,,,0.00,meteohub,2013-02-26 05:20:00,
2013-02-25 21:25:00,49.1,44.4,30.12,West,270,0.0,1.0,84,0.00,,,0.00,meteohub,2013-02-26 05:25:00,
2013-02-25 21:30:00,49.1,44.4,30.12,West,270,0.0,1.0,84,0.00,,,0.00,meteohub,2013-02-26 05:30:00,
2013-02-25 21:35:00,49.1,44.4,30.12,West,270,0.0,0.0,84,0.00,,,0.00,meteohub,2013-02-26 05:35:00,
2013-02-25 21:40:00,49.5,45.5,30.12,West,270,0.0,1.0,86,0.00,,,0.00,meteohub,2013-02-26 05:40:00,
2013-02-25 21:45:00,49.3,45.0,30.13,West,270,2.0,2.0,85,0.00,,,0.00,meteohub,2013-02-26 05:45:00,
2013-02-25 21:50:00,49.1,44.8,30.13,West,270,0.0,2.0,85,0.00,,,0.00,meteohub,2013-02-26 05:50:00,
2013-02-25 21:55:00,48.6,43.9,30.13,West,270,0.0,2.0,84,0.00,,,0.00,meteohub,2013-02-26 05:55:00,
2013-02-25 22:00:00,48.6,44.8,30.13,West,270,2.0,2.0,87,0.00,,,0.00,meteohub,2013-02-26 06:00:00,
2013-02-25 22:05:00,48.4,44.8,30.13,West,270,0.0,2.0,87,0.00,,,0.00,meteohub,2013-02-26 06:05:00,
2013-02-25 22:10:00,48.0,44.4,30.12,West,270,3.0,3.0,87,0.00,,,0.00,meteohub,2013-02-26 06:10:00,
2013-02-25 22:15:00,47.8,44.4,30.12,West,270,0.0,3.0,88,0.00,,,0.00,meteohub,2013-02-26 06:15:00,
2013-02-25 22:20:00,47.5,44.1,30.13,West,270,1.0,3.0,88,0.00,,,0.00,meteohub,2013-02-26 06:20:00,
2013-02-25 22:25:00,47.3,43.9,30.12,West,270,0.0,3.0,88,0.00,,,0.00,meteohub,2013-02-26 06:25:00,
2013-02-25 22:30:00,47.3,44.2,30.12,West,270,1.0,2.0,89,0.00,,,0.00,meteohub,2013-02-26 06:30:00,
2013-02-25 22:35:00,47.5,44.8,30.12,West,270,1.0,2.0,90,0.00,,,0.00,meteohub,2013-02-26 06:35:00,
2013-02-25 22:40:00,46.9,43.9,30.12,West,270,0.0,2.0,89,0.00,,,0.00,meteohub,2013-02-26 06:40:00,
2013-02-25 22:45:00,46.4,43.3,30.13,West,270,0.0,2.0,89,0.00,,,0.00,meteohub,2013-02-26 06:45:00,
2013-02-25 22:50:00,46.0,43.3,30.12,West,270,2.0,2.0,90,0.00,,,0.00,meteohub,2013-02-26 06:50:00,
2013-02-25 22:55:00,46.2,44.1,30.12,West,270,2.0,2.0,92,0.00,,,0.00,meteohub,2013-02-26 06:55:00,
2013-02-25 23:01:00,46.4,44.4,30.12,West,270,0.0,2.0,93,0.00,,,0.00,meteohub,2013-02-26 07:01:00,
2013-02-25 23:06:00,46.2,44.2,30.12,West,270,0.0,2.0,93,0.00,,,0.00,meteohub,2013-02-26 07:06:00,
2013-02-25 23:11:00,45.7,43.5,30.12,West,270,0.0,2.0,92,0.00,,,0.00,meteohub,2013-02-26 07:11:00,
2013-02-25 23:16:00,45.3,43.3,30.12,West,270,1.0,2.0,93,0.00,,,0.00,meteohub,2013-02-26 07:16:00,
2013-02-25 23:21:00,45.3,43.3,30.12,West,270,0.0,2.0,93,0.00,,,0.00,meteohub,2013-02-26 07:21:00,
2013-02-25 23:26:00,45.3,43.3,30.12,West,270,0.0,2.0,93,0.00,,,0.00,meteohub,2013-02-26 07:26:00,
2013-02-25 23:31:00,44.8,42.8,30.12,West,270,0.0,2.0,93,0.00,,,0.00,meteohub,2013-02-26 07:31:00,
2013-02-25 23:36:00,44.6,42.6,30.11,West,270,0.0,0.0,93,0.00,,,0.00,meteohub,2013-02-26 07:36:00,
2013-02-25 23:41:00,44.8,43.5,30.12,West,270,1.0,0.0,95,0.00,,,0.00,meteohub,2013-02-26 07:41:00,
2013-02-25 23:46:00,45.0,43.7,30.11,West,270,0.0,2.0,95,0.00,,,0.00,meteohub,2013-02-26 07:46:00,
2013-02-25 23:51:00,44.8,43.5,30.11,West,270,0.0,2.0,95,0.00,,,0.00,meteohub,2013-02-26 07:51:00,
2013-02-25 23:56:00,45.0,43.9,30.11,West,270,2.0,2.0,96,0.00,,,0.00,meteohub,2013-02-26 07:56:00,